Weather History for Port Angeles, WA

Change the Weather History Date:

Tuesday, October 8, 2013

  Actual Average Record
Temperature  
Mean Temperature 50 °F -  
Max Temperature 59 °F 60 °F 69 °F (1976)
Min Temperature 43 °F 45 °F 31 °F (1985)
Degree Days  
Heating Degree Days 15    
Moisture  
Dew Point 43 °F    
Average Humidity 73    
Maximum Humidity 89    
Minimum Humidity 46    
Precipitation  
Precipitation 0.11 in - - ()
Sea Level Pressure  
Sea Level Pressure 30.01 in    
Wind  
Wind Speed 11 mph (West)    
Max Wind Speed 18 mph    
Max Gust Speed 33 mph    
Visibility 9 miles    
Events Rain    
Averages and records for this station are not official NWS values.
T = Trace of Precipitation, MM = Missing Value Source: NWS Daily Summary

Daily Weather History Graph

Daily Weather History Graph

Search for Another Location

Airport:

Trip Planner

Search our weather history database for the weather conditions in past years. The results will help you decide how hot, cold, wet, or windy it might be!

Date:

Astronomy

Oct. 08, 2013 Rise Set
Actual Time 7:23 AM PDT 6:38 PM PDT
Civil Twilight 6:52 AM PDT 7:09 PM PDT
Nautical Twilight 6:16 AM PDT 7:45 PM PDT
Astronomical Twilight 5:40 AM PDT 8:21 PM PDT
Moon 11:41 AM PDT (10/8) 9:02 PM PDT (10/8)
Length of Visible Light 12h 16m
Length of Day
11h 14m
Waxing Crescent, 17% of the Moon is Illuminated
Oct 8
Waxing Crescent
Oct 11
First Quarter
Oct 18
Full
Oct 26
Last Quarter
Nov 3
New

Hourly Weather History & Observations

Time (PDT) Temp. Windchill Dew Point Humidity Pressure Visibility Wind Dir Wind Speed Gust Speed Precip Events Conditions
12:53 AM 55.0 °F - 39.9 °F 57% 29.99 in 10.0 mi WNW 17.3 mph 33.4 mph N/A   Overcast
1:53 AM 55.0 °F - 41.0 °F 59% 30.01 in 10.0 mi West 18.4 mph 26.5 mph N/A   Overcast
2:53 AM 55.0 °F - 39.9 °F 57% 29.99 in 10.0 mi West 15.0 mph 24.2 mph N/A   Overcast
3:53 AM 54.0 °F - 42.1 °F 64% 29.98 in 10.0 mi West 17.3 mph 28.8 mph N/A   Overcast
4:53 AM 53.1 °F - 42.1 °F 66% 29.98 in 10.0 mi West 12.7 mph 21.9 mph 0.00 in   Overcast
5:53 AM 53.1 °F - 42.1 °F 66% 29.99 in 10.0 mi West 13.8 mph 23.0 mph N/A   Overcast
6:53 AM 52.0 °F - 42.1 °F 69% 29.99 in 10.0 mi West 12.7 mph - 0.00 in   Mostly Cloudy
7:53 AM 50.0 °F - 44.1 °F 80% 29.99 in 7.0 mi West 10.4 mph - 0.00 in Rain Light Rain
8:53 AM 50.0 °F - 46.9 °F 89% 29.99 in 10.0 mi Calm Calm - 0.07 in Rain Light Rain
9:05 AM 50.0 °F - 46.9 °F 89% 29.98 in 1.8 mi WSW 10.4 mph - 0.04 in Rain Light Rain
9:08 AM 50.0 °F - 46.0 °F 86% 29.98 in 3.0 mi West 11.5 mph 17.3 mph 0.04 in Rain Rain
9:34 AM 50.0 °F - 46.9 °F 89% 29.98 in 10.0 mi WSW 6.9 mph - 0.04 in   Overcast
9:50 AM 51.8 °F - 46.4 °F 82% 29.97 in 10.0 mi WSW 11.5 mph - 0.04 in   Scattered Clouds
9:53 AM 52.0 °F - 46.0 °F 80% 29.98 in 10.0 mi WSW 11.5 mph - 0.04 in   Scattered Clouds
10:18 AM 52.0 °F - 46.9 °F 83% 29.98 in 10.0 mi SW 8.1 mph - N/A   Overcast
10:33 AM 53.1 °F - 46.9 °F 80% 29.98 in 10.0 mi West 12.7 mph 17.3 mph N/A   Overcast
10:53 AM 55.0 °F - 46.9 °F 74% 29.98 in 10.0 mi WNW 11.5 mph - N/A   Overcast
11:53 AM 55.0 °F - 45.0 °F 69% 29.99 in 10.0 mi NW 9.2 mph 19.6 mph N/A   Mostly Cloudy
12:53 PM 53.1 °F - 46.0 °F 77% 30.01 in 10.0 mi North 6.9 mph - 0.00 in Rain Light Rain
1:53 PM 54.0 °F - 45.0 °F 72% 30.00 in 10.0 mi NNW 5.8 mph - 0.00 in   Mostly Cloudy
2:53 PM 57.0 °F - 41.0 °F 55% 30.00 in 10.0 mi North 4.6 mph - N/A   Clear
3:53 PM 57.0 °F - 39.0 °F 51% 30.01 in 10.0 mi NW 4.6 mph - N/A   Clear
4:53 PM 57.9 °F - 37.0 °F 46% 30.02 in 10.0 mi Calm Calm - N/A   Clear
5:53 PM 54.0 °F - 41.0 °F 62% 30.03 in 10.0 mi East 4.6 mph - N/A   Clear
6:53 PM 48.0 °F - 42.1 °F 80% 30.05 in 10.0 mi South 5.8 mph - N/A   Clear
7:53 PM 44.1 °F - 41.0 °F 89% 30.06 in 10.0 mi Calm Calm - N/A   Clear
8:53 PM 43.0 °F 40.3 °F 39.0 °F 86% 30.08 in 10.0 mi SSW 4.6 mph - N/A   Clear
9:53 PM 45.0 °F 41.8 °F 39.0 °F 80% 30.10 in 10.0 mi WSW 5.8 mph - N/A   Mostly Cloudy
10:53 PM 45.0 °F 40.1 °F 39.0 °F 80% 30.10 in 10.0 mi SW 9.2 mph - N/A   Mostly Cloudy
11:53 PM 44.1 °F 41.5 °F 37.9 °F 79% 30.12 in 10.0 mi SW 4.6 mph - N/A   Clear